• Em Portugal
  • Lista de países
  • Para 7 dias
  • Temperatura da água
  • Mapas de satélite
  • Mapa do tempo
  • Widgets de tempo
  • user-avatar
    Iniciar Sessão

    Previsão horária em Rundu

    Hoje, 20 Outubro, Sexta-feira

    Tempo Temperatura Precipitação Vento Pressão Humidade
    00:00 +29°C° 0 mm 2 m/s 666 mmHg 14%
    01:00 +29°C° 0 mm 2 m/s 666 mmHg 13%
    02:00 +28°C° 0 mm 3 m/s 666 mmHg 13%
    03:00 +27°C° 0 mm 3 m/s 666 mmHg 12%
    04:00 +27°C° 0 mm 3 m/s 666 mmHg 12%
    05:00 +28°C° 0 mm 4 m/s 666 mmHg 11%
    06:00 +29°C° 0 mm 4 m/s 667 mmHg 10%
    07:00 +32°C° 0 mm 5 m/s 668 mmHg 9%
    08:00 +34°C° 0 mm 5 m/s 668 mmHg 8%
    09:00 +37°C° 0 mm 4 m/s 669 mmHg 7%
    10:00 +40°C° 0 mm 4 m/s 670 mmHg 6%
    11:00 +40°C° 0 mm 3 m/s 669 mmHg 6%
    12:00 +40°C° 0 mm 2 m/s 668 mmHg 7%
    13:00 +40°C° 0 mm 1 m/s 668 mmHg 7%
    14:00 +40°C° 0 mm 1 m/s 667 mmHg 7%
    15:00 +40°C° 0 mm 2 m/s 667 mmHg 7%
    16:00 +40°C° 0 mm 2 m/s 667 mmHg 7%
    17:00 +38°C° 0 mm 2 m/s 667 mmHg 9%
    18:00 +35°C° 0 mm 1 m/s 666 mmHg 10%
    19:00 +33°C° 0 mm 1 m/s 666 mmHg 11%
    20:00 +32°C° 0 mm 1 m/s 667 mmHg 12%
    21:00 +32°C° 0 mm 2 m/s 668 mmHg 12%
    22:00 +31°C° 0 mm 2 m/s 668 mmHg 13%
    23:00 +30°C° 0 mm 2 m/s 668 mmHg 14%

    Amanhã, 21 Outubro, Sábado

    Tempo Temperatura Precipitação Vento Pressão Humidade
    00:00 +29°C° 0 mm 2 m/s 667 mmHg 15%
    01:00 +28°C° 0 mm 2 m/s 667 mmHg 16%
    02:00 +27°C° 0 mm 2 m/s 667 mmHg 17%
    03:00 +26°C° 0 mm 2 m/s 667 mmHg 19%
    04:00 +25°C° 0 mm 2 m/s 666 mmHg 20%
    05:00 +27°C° 0 mm 2 m/s 667 mmHg 19%
    06:00 +29°C° 0 mm 3 m/s 668 mmHg 17%
    07:00 +30°C° 0 mm 3 m/s 669 mmHg 16%
    08:00 +34°C° 0 mm 3 m/s 669 mmHg 15%
    09:00 +37°C° 0 mm 4 m/s 669 mmHg 15%
    10:00 +40°C° 0 mm 4 m/s 670 mmHg 14%
    11:00 +41°C° 0 mm 4 m/s 669 mmHg 13%
    12:00 +42°C° 0 mm 4 m/s 668 mmHg 12%
    13:00 +43°C° 0 mm 3 m/s 668 mmHg 11%
    14:00 +42°C° 0 mm 3 m/s 667 mmHg 12%
    15:00 +40°C° 0 mm 3 m/s 667 mmHg 13%
    16:00 +40°C° 0 mm 4 m/s 666 mmHg 14%
    17:00 +37°C° 0 mm 3 m/s 667 mmHg 17%
    18:00 +35°C° 0 mm 3 m/s 667 mmHg 20%
    19:00 +33°C° 0 mm 3 m/s 667 mmHg 23%
    20:00 +31°C° 0 mm 3 m/s 667 mmHg 25%
    21:00 +31°C° 0 mm 3 m/s 668 mmHg 26%
    22:00 +30°C° 0 mm 3 m/s 668 mmHg 28%
    23:00 +29°C° 0 mm 3 m/s 668 mmHg 29%

    Depois de amanhã, 22 Outubro, Domingo

    Tempo Temperatura Precipitação Vento Pressão Humidade
    00:00 +29°C° 0 mm 3 m/s 668 mmHg 30%
    01:00 +29°C° 0 mm 3 m/s 667 mmHg 31%
    02:00 +28°C° 0,2 mm 2 m/s 667 mmHg 34%
    03:00 +27°C° 0,2 mm 2 m/s 667 mmHg 36%
    04:00 +26°C° 0,2 mm 1 m/s 667 mmHg 38%
    05:00 +27°C° 0,4 mm 2 m/s 668 mmHg 40%
    06:00 +27°C° 0,4 mm 2 m/s 669 mmHg 41%
    07:00 +27°C° 0,4 mm 2 m/s 669 mmHg 42%
    08:00 +29°C° 0,1 mm 2 m/s 670 mmHg 37%
    09:00 +33°C° 0,1 mm 3 m/s 670 mmHg 31%
    10:00 +35°C° 0,1 mm 3 m/s 671 mmHg 26%
    11:00 +36°C° 0 mm 3 m/s 670 mmHg 23%
    12:00 +38°C° 0 mm 3 m/s 670 mmHg 20%
    13:00 +39°C° 0 mm 3 m/s 669 mmHg 16%
    14:00 +39°C° 0 mm 3 m/s 669 mmHg 16%
    15:00 +38°C° 0 mm 3 m/s 668 mmHg 17%
    16:00 +38°C° 0 mm 3 m/s 668 mmHg 17%
    17:00 +36°C° 0,1 mm 3 m/s 668 mmHg 20%
    18:00 +34°C° 0,1 mm 2 m/s 668 mmHg 22%
    19:00 +31°C° 0,1 mm 2 m/s 668 mmHg 25%
    20:00 +30°C° 0 mm 2 m/s 668 mmHg 27%
    21:00 +30°C° 0 mm 2 m/s 668 mmHg 29%
    22:00 +29°C° 0 mm 2 m/s 668 mmHg 31%
    23:00 +28°C° 0,3 mm 1 m/s 668 mmHg 34%

    23 Outubro, Segunda-feira

    Tempo Temperatura Precipitação Vento Pressão Humidade
    00:00 +28°C° 0,3 mm 1 m/s 667 mmHg 37%
    01:00 +27°C° 0,3 mm 1 m/s 667 mmHg 40%
    02:00 +26°C° 0,2 mm 1 m/s 667 mmHg 42%
    03:00 +26°C° 0,2 mm 1 m/s 667 mmHg 44%
    04:00 +25°C° 0,2 mm 1 m/s 667 mmHg 46%
    05:00 +26°C° 0,1 mm 2 m/s 668 mmHg 44%
    06:00 +27°C° 0,1 mm 3 m/s 668 mmHg 41%
    07:00 +29°C° 0,1 mm 3 m/s 669 mmHg 39%
    08:00 +31°C° 0 mm 3 m/s 670 mmHg 34%
    09:00 +34°C° 0 mm 3 m/s 670 mmHg 29%
    10:00 +36°C° 0 mm 3 m/s 670 mmHg 25%
    11:00 +37°C° 0 mm 3 m/s 670 mmHg 23%
    12:00 +37°C° 0 mm 3 m/s 669 mmHg 22%
    13:00 +38°C° 0 mm 2 m/s 668 mmHg 20%
    14:00 +37°C° 0,1 mm 3 m/s 668 mmHg 22%
    15:00 +36°C° 0,1 mm 3 m/s 668 mmHg 24%
    16:00 +35°C° 0,1 mm 3 m/s 668 mmHg 26%
    17:00 +33°C° 0,7 mm 3 m/s 668 mmHg 35%
    18:00 +30°C° 0,7 mm 4 m/s 668 mmHg 44%
    19:00 +27°C° 0,7 mm 4 m/s 668 mmHg 53%
    20:00 +26°C° 1,1 mm 4 m/s 668 mmHg 58%
    21:00 +25°C° 1,1 mm 5 m/s 669 mmHg 62%
    22:00 +25°C° 1,1 mm 5 m/s 669 mmHg 66%
    23:00 +25°C° 0,4 mm 5 m/s 668 mmHg 64%

    24 Outubro, Terça-feira

    Tempo Temperatura Precipitação Vento Pressão Humidade
    00:00 +25°C° 0,4 mm 5 m/s 668 mmHg 62%
    01:00 +25°C° 0,4 mm 4 m/s 668 mmHg 60%
    02:00 +25°C° 0,1 mm 4 m/s 667 mmHg 59%
    03:00 +25°C° 0,1 mm 3 m/s 667 mmHg 59%
    04:00 +25°C° 0,1 mm 3 m/s 667 mmHg 59%
    05:00 +26°C° 0 mm 3 m/s 667 mmHg 55%
    06:00 +27°C° 0 mm 3 m/s 668 mmHg 51%
    07:00 +28°C° 0 mm 3 m/s 668 mmHg 47%
    08:00 +31°C° 0 mm 3 m/s 669 mmHg 39%
    09:00 +35°C° 0 mm 3 m/s 669 mmHg 30%
    10:00 +37°C° 0 mm 4 m/s 669 mmHg 22%
    11:00 +38°C° 0 mm 3 m/s 668 mmHg 21%
    12:00 +38°C° 0 mm 2 m/s 668 mmHg 19%
    13:00 +39°C° 0 mm 2 m/s 667 mmHg 18%
    14:00 +38°C° 0 mm 2 m/s 667 mmHg 19%
    15:00 +37°C° 0 mm 2 m/s 666 mmHg 20%
    16:00 +37°C° 0 mm 2 m/s 666 mmHg 21%
    17:00 +35°C° 0,2 mm 2 m/s 667 mmHg 24%
    18:00 +34°C° 0,2 mm 2 m/s 667 mmHg 27%
    19:00 +31°C° 0,2 mm 3 m/s 667 mmHg 31%
    20:00 +31°C° 0,2 mm 2 m/s 667 mmHg 33%
    21:00 +30°C° 0,2 mm 2 m/s 667 mmHg 35%
    22:00 +29°C° 0,2 mm 1 m/s 667 mmHg 38%
    23:00 +28°C° 0,1 mm 1 m/s 667 mmHg 40%

    25 Outubro, Quarta-feira

    Tempo Temperatura Precipitação Vento Pressão Humidade
    00:00 +28°C° 0,1 mm 2 m/s 666 mmHg 43%
    01:00 +27°C° 0,1 mm 2 m/s 666 mmHg 45%
    02:00 +27°C° 0 mm 2 m/s 666 mmHg 46%
    03:00 +26°C° 0 mm 2 m/s 666 mmHg 47%
    04:00 +26°C° 0 mm 2 m/s 666 mmHg 49%
    05:00 +27°C° 0 mm 3 m/s 667 mmHg 45%
    06:00 +29°C° 0 mm 3 m/s 667 mmHg 42%
    07:00 +30°C° 0 mm 4 m/s 668 mmHg 39%
    08:00 +33°C° 0 mm 3 m/s 668 mmHg 33%
    09:00 +35°C° 0 mm 3 m/s 668 mmHg 28%
    10:00 +38°C° 0 mm 3 m/s 668 mmHg 22%
    11:00 +38°C° 0 mm 2 m/s 667 mmHg 20%
    12:00 +39°C° 0 mm 2 m/s 667 mmHg 18%
    13:00 +40°C° 0 mm 1 m/s 666 mmHg 16%
    14:00 +39°C° 0 mm 1 m/s 666 mmHg 17%
    15:00 +39°C° 0 mm 1 m/s 666 mmHg 17%
    16:00 +37°C° 0 mm 1 m/s 666 mmHg 18%
    17:00 +37°C° 0,1 mm 2 m/s 666 mmHg 21%
    18:00 +35°C° 0,1 mm 2 m/s 666 mmHg 24%
    19:00 +32°C° 0,1 mm 2 m/s 667 mmHg 27%
    20:00 +31°C° 0,2 mm 3 m/s 667 mmHg 32%
    21:00 +30°C° 0,2 mm 3 m/s 667 mmHg 36%
    22:00 +29°C° 0,2 mm 4 m/s 667 mmHg 40%
    23:00 +29°C° 0,3 mm 4 m/s 667 mmHg 43%
    Mostrar mais